Weather Roundup
Issued by NWS Chicago, IL

Home | Current Version | Previous Version | Text Only | Print | Product List | Glossary Off
Versions: 1 2 3 4 5 6 7 8 9 10 11 12 13 14 15 16 17 18 19 20 21 22 23 24 25 26 27 28 29 30 31 32 33 34 35 36 37 38 39 40 41 42 43 44 45 46 47 48 49 50

000
NZUS59 KLOT 250221
HRRLOT

CHICAGO AREA WEATHER ROUNDUP
NATIONAL WEATHER SERVICE CHICAGO/ROMEOVILLE IL
900 PM CDT FRI APR 24 2015

NOTE: "FAIR" INDICATES FEW OR NO CLOUDS BELOW 12,000 FEET WITH NO
SIGNIFICANT WEATHER AND/OR OBSTRUCTIONS TO VISIBILITY.

* THESE STATIONS ARE NOT UNDER NWS QUALITY CONTROL. THEY ALSO MAY NOT
  REPORT WEATHER SUCH AS PRECIPITATION OR FOG.

ILZ005-006-012>014-019>023-250300-
NORTHEAST ILLINOIS

CITY           SKY/WX    TMP DP  RH WIND       PRES   REMARKS
OHARE          LGT RAIN  42  35  76 E7        29.94R
MIDWAY         LGT RAIN  47  32  56 NE17      29.95R
AURORA         RAIN      44  35  70 E12       29.92R
LANSING*       CLOUDY    45  27  48 N12       29.94R
JOLIET*        RAIN      49  32  53 NE13      29.91S
WAUKEGAN       CLOUDY    39  36  89 NE12      29.93R
DUPAGE AIRPORT RAIN      41  37  86 E6        29.92R FOG
WHEELING       LGT RAIN  41  34  76 VRB5      29.95R
KANKAKEE*      CLOUDY    54  35  47 E3        29.89S
MORRIS*        LGT RAIN  48  33  57 NE5       29.90R
LEWIS AIRPORT* LGT RAIN  45  32  59 E13       29.92R
NORTHERLY IS     N/A     43  33  68 NE14        N/A
$$

WIZ051-052-058>065-066-070>072-250300-
SOUTHEAST WISCONSIN

CITY           SKY/WX    TMP DP  RH WIND       PRES   REMARKS
MILWAUKEE      CLOUDY    39  33  79 NE7       29.99R
KENOSHA*       CLOUDY    40  35  83 NE13      29.94R
RACINE*        CLOUDY    39  33  79 NE9       29.97S
BURLINGTON     CLOUDY    38  33  81 E12       29.92F
WAUKESHA       CLOUDY    37  34  87 NE7       29.97S
WEST BEND      LGT RAIN  36  32  87 E7        29.98R
$$

INZ001>003-010>013-019-020-250300-
NORTHWEST INDIANA

CITY           SKY/WX    TMP DP  RH WIND       PRES   REMARKS
GARY*          CLOUDY    46  25  42 E12G23    29.92F
MICHIGAN CITY* NOT AVBL
RENSSELAER*    NOT AVBL
VALPARAISO     CLOUDY    50  28  42 NE9       29.90F
$$

LMZ740>746-250300-
SOUTHERN LAKE MICHIGAN

STATION/POSITION TIME  SKY/WX   TEMP WIND        PRES    VSBY
                                AIR  DIR/SP/G
                 (UTC)          (F)  (DEG/KT/KT) (MB)    (MI)
HARRISON CRIB    0200            41   60/ 13/ 16   N/A
BURNHAM HARBOR   0200            43   40/ 10/ 15   N/A
CALUMET HARBOR   0100            44   50/ 10/ 12   N/A
BURNS HARBOR     0100            47   60/ 18/ 22 1013.9S
MICHIGAN CITY    0200            47   20/ 13/ 14   N/A
$$

ABBREVIATIONS USED IN REMARKS
   TC - TEMPERATURE IN CELSIUS
  WCI - WIND CHILL INDEX
   HX - HEAT INDEX
  VSB - VISIBILITY
$$


USA.gov is the U.S. government's official web portal to all federal, state and local government web resources and services.